User: anonymous   Login
Location: Unspecified
(0.0000°N, 0.0000°E)
Time: 00:14:51
(UTC+00:00)
Language:

LAPAN A2 - Orbit

View from above orbital plane
View from above orbital plane
View from above satellite
View from above satellite

Ground track
Ground track

The orbit data is extracted from the following two-line orbital elements,

1 40931U 15052B   17327.99146390  .00000715  00000-0  10578-4 0  9999
2 40931   5.9971 173.2841 0013459 343.3657  16.6110 14.76556062116622
Epoch (UTC): 23 November 2017 23:47:42
Eccentricity: 0.0013459
inclination: 5.9971°
perigee height: 631 km
apogee height: 649 km
right ascension of ascending node: 173.2841°
argument of perigee: 343.3657°
revolutions per day: 14.76556062
mean anomaly at epoch: 16.6110°
orbit number at epoch: 11662

The dashed part of the orbit path shows where the satellite is in the earth's shadow,  

DLR